| time (UTC) | temp F | wind direction | speed MPH | gust MPH | rain 1hr in | rain 24hr in | rain mn in | humidity % | barometer mb |
| 20260504081512 | 54 | 96 | 2.0 | 2.0 | 0.00 | 0.00 | 0.00 | 74 | |
| 20260504081008 | 54 | 101 | 2.0 | 2.0 | 0.00 | 0.00 | 0.00 | 75 | |
| 20260504080504 | 54 | 89 | 2.0 | 2.0 | 0.00 | 0.00 | 0.00 | 72 | |
| 20260504050317 | 48 | 74 | 1.0 | 3.0 | 0.00 | 0.00 | 0.00 | 83 | |
| 20260504045814 | 48 | 49 | 3.0 | 4.0 | 0.00 | 0.00 | 0.00 | 83 | |
| 20260504045314 | 48 | 61 | 2.0 | 3.0 | 0.00 | 0.00 | 0.00 | 82 | |
| 20260504044812 | 48 | 72 | 2.0 | 2.0 | 0.00 | 0.00 | 0.00 | 81 | |
| 20260504044309 | 48 | 67 | 2.0 | 2.0 | 0.00 | 0.00 | 0.00 | 83 | |
| 20260504043806 | 48 | 73 | 2.0 | 3.0 | 0.00 | 0.00 | 0.00 | 81 | |
| 20260504043303 | 48 | 69 | 2.0 | 2.0 | 0.00 | 0.00 | 0.00 | 82 | |
| 20260504042801 | 47 | 94 | 2.0 | 2.0 | 0.00 | 0.00 | 0.00 | 78 | |
| 20260504042257 | 48 | 92 | 2.0 | 2.0 | 0.00 | 0.00 | 0.00 | 82 | |
| 20260504041753 | 48 | 84 | 2.0 | 2.0 | 0.00 | 0.00 | 0.00 | 83 | |
| 20260504041249 | 47 | 91 | 2.0 | 2.0 | 0.00 | 0.00 | 0.00 | 82 | |
| 20260504040745 | 47 | 95 | 2.0 | 3.0 | 0.00 | 0.00 | 0.00 | 83 | |
| 20260504040243 | 47 | 98 | 2.0 | 2.0 | 0.00 | 0.00 | 0.00 | 87 | |
| 20260504035739 | 47 | 99 | 2.0 | 3.0 | 0.00 | 0.00 | 0.00 | 87 | |
| 20260504035236 | 47 | 73 | 2.0 | 3.0 | 0.00 | 0.00 | 0.00 | 88 | |
| 20260504034734 | 47 | 70 | 2.0 | 3.0 | 0.00 | 0.00 | 0.00 | 88 | |
| 20260504034231 | 47 | 83 | 2.0 | 2.0 | 0.00 | 0.00 | 0.00 | 88 | |
| 20260504033729 | 47 | 93 | 2.0 | 2.0 | 0.00 | 0.00 | 0.00 | 88 | |
| 20260504033226 | 47 | 87 | 2.0 | 2.0 | 0.00 | 0.00 | 0.00 | 87 | |
| 20260504032723 | 47 | 68 | 2.0 | 3.0 | 0.00 | 0.00 | 0.00 | 86 | |
| 20260504032220 | 47 | 78 | 2.0 | 3.0 | 0.00 | 0.00 | 0.00 | 85 | |
| 20260504031716 | 47 | 81 | 2.0 | 3.0 | 0.00 | 0.00 | 0.00 | 85 | |
| 20260504031214 | 48 | 82 | 2.0 | 3.0 | 0.00 | 0.00 | 0.00 | 88 | |
| 20260504030709 | 48 | 86 | 2.0 | 2.0 | 0.00 | 0.00 | 0.00 | 87 | |
| 20260504030207 | 48 | 93 | 2.0 | 2.0 | 0.00 | 0.00 | 0.00 | 87 | |
| 20260504025703 | 48 | 89 | 2.0 | 3.0 | 0.00 | 0.00 | 0.00 | 87 | |
| 20260504025200 | 48 | 93 | 2.0 | 2.0 | 0.00 | 0.00 | 0.00 | 86 | |
| 20260504024657 | 48 | 88 | 2.0 | 3.0 | 0.00 | 0.00 | 0.00 | 85 | |
| 20260504024153 | 48 | 86 | 2.0 | 3.0 | 0.00 | 0.00 | 0.00 | 85 | |
| 20260504023650 | 48 | 72 | 2.0 | 3.0 | 0.00 | 0.00 | 0.00 | 84 | |
| 20260504023146 | 48 | 92 | 2.0 | 3.0 | 0.00 | 0.00 | 0.00 | 84 | |
| 20260504022643 | 48 | 86 | 2.0 | 3.0 | 0.00 | 0.00 | 0.00 | 84 | |
| 20260504022138 | 48 | 84 | 2.0 | 3.0 | 0.00 | 0.00 | 0.00 | 84 | |
| 20260504021637 | 49 | 85 | 2.0 | 3.0 | 0.00 | 0.00 | 0.00 | 85 | |
| 20260504021133 | 48 | 86 | 2.0 | 2.0 | 0.00 | 0.00 | 0.00 | 83 | |
| 20260504020630 | 49 | 73 | 2.0 | 3.0 | 0.00 | 0.00 | 0.00 | 83 | |
| 20260504020126 | 49 | 85 | 2.0 | 3.0 | 0.00 | 0.00 | 0.00 | 81 | |
| 20260504015623 | 49 | 97 | 2.0 | 2.0 | 0.00 | 0.00 | 0.00 | 79 | |
| 20260504015119 | 49 | 94 | 2.0 | 3.0 | 0.00 | 0.00 | 0.00 | 79 | |
| 20260504014615 | 49 | 88 | 2.0 | 2.0 | 0.00 | 0.00 | 0.00 | 77 | |
| 20260504014113 | 50 | 92 | 2.0 | 3.0 | 0.00 | 0.00 | 0.00 | 78 | |
| 20260504013610 | 50 | 94 | 2.0 | 2.0 | 0.00 | 0.00 | 0.00 | 75 | |
| 20260504013107 | 50 | 64 | 2.0 | 3.0 | 0.00 | 0.00 | 0.00 | 77 | |
| 20260504012604 | 50 | 89 | 2.0 | 3.0 | 0.00 | 0.00 | 0.00 | 75 | |
| 20260504012102 | 50 | 84 | 2.0 | 3.0 | 0.00 | 0.00 | 0.00 | 73 | |
| 20260504011559 | 50 | 79 | 1.0 | 2.0 | 0.00 | 0.00 | 0.00 | 72 | |
| 20260504011055 | 51 | 89 | 2.0 | 3.0 | 0.00 | 0.00 | 0.00 | 69 | |
| 20260504010550 | 51 | 75 | 2.0 | 3.0 | 0.00 | 0.00 | 0.00 | 70 | |
| 20260504010047 | 51 | 71 | 2.0 | 3.0 | 0.00 | 0.00 | 0.00 | 70 | |
| 20260504005544 | 51 | 84 | 2.0 | 2.0 | 0.00 | 0.00 | 0.00 | 66 | |
| 20260504005041 | 51 | 75 | 2.0 | 3.0 | 0.00 | 0.00 | 0.00 | 65 | |
| 20260504004539 | 52 | 60 | 2.0 | 2.0 | 0.00 | 0.00 | 0.00 | 68 | |
| 20260504004036 | 52 | 82 | 2.0 | 2.0 | 0.00 | 0.00 | 0.00 | 60 | |
| 20260504003532 | 53 | 88 | 2.0 | 2.0 | 0.00 | 0.00 | 0.00 | 60 | |
| 20260504003029 | 53 | 102 | 2.0 | 2.0 | 0.00 | 0.00 | 0.00 | 61 | |
| 20260504002525 | 54 | 89 | 1.0 | 2.0 | 0.00 | 0.00 | 0.00 | 65 | |
| 20260504002023 | 54 | 71 | 1.0 | 2.0 | 0.00 | 0.00 | 0.00 | 66 | |
| 20260504001521 | 55 | 85 | 2.0 | 2.0 | 0.00 | 0.00 | 0.00 | 62 | |
| 20260504001017 | 55 | 75 | 1.0 | 2.0 | 0.00 | 0.00 | 0.00 | 61 | |
| 20260504000514 | 56 | 64 | 1.0 | 2.0 | 0.00 | 0.00 | 0.00 | 57 | |
| 20260504000011 | 56 | 93 | 1.0 | 2.0 | 0.00 | 0.00 | 0.00 | 53 | |
| 20260503235509 | 56 | 85 | 2.0 | 2.0 | 0.00 | 0.00 | 0.00 | 51 | |
| 20260503235006 | 57 | 87 | 1.0 | 2.0 | 0.00 | 0.00 | 0.00 | 53 | |
| 20260503234503 | 57 | 72 | 2.0 | 2.0 | 0.00 | 0.00 | 0.00 | 51 | |
| 20260503234002 | 58 | 77 | 1.0 | 2.0 | 0.00 | 0.00 | 0.00 | 46 | |
| 20260503233457 | 58 | 73 | 1.0 | 2.0 | 0.00 | 0.00 | 0.00 | 48 | |
| 20260503232954 | 59 | 77 | 2.0 | 2.0 | 0.00 | 0.00 | 0.00 | 43 | |
| 20260503232451 | 60 | 73 | 0.0 | 3.0 | 0.00 | 0.00 | 0.00 | 43 | |
| 20260503231949 | 60 | 86 | 1.0 | 3.0 | 0.00 | 0.00 | 0.00 | 40 | |
| 20260503231446 | 60 | 131 | 2.0 | 3.0 | 0.00 | 0.00 | 0.00 | 39 | |
| 20260503230942 | 61 | 133 | 2.0 | 3.0 | 0.00 | 0.00 | 0.00 | 40 | |
| 20260503230439 | 60 | 125 | 6.0 | 6.0 | 0.00 | 0.00 | 0.00 | 36 | |
| 20260503225937 | 61 | 113 | 3.0 | 4.0 | 0.00 | 0.00 | 0.00 | 33 | |
| 20260503225433 | 61 | 151 | 2.0 | 3.0 | 0.00 | 0.00 | 0.00 | 37 | |
| 20260503224929 | 61 | 112 | 4.0 | 5.0 | 0.00 | 0.00 | 0.00 | 35 | |
| 20260503224426 | 61 | 143 | 4.0 | 4.0 | 0.00 | 0.00 | 0.00 | 35 | |
| 20260503223924 | 61 | 142 | 3.0 | 9.0 | 0.00 | 0.00 | 0.00 | 33 | |
| 20260503223422 | 61 | 161 | 4.0 | 7.0 | 0.00 | 0.00 | 0.00 | 35 | |
| 20260503222917 | 61 | 143 | 6.0 | 7.0 | 0.00 | 0.00 | 0.00 | 34 | |
| 20260503222416 | 61 | 128 | 3.0 | 6.0 | 0.00 | 0.00 | 0.00 | 34 | |
| 20260503221914 | 61 | 97 | 3.0 | 7.0 | 0.00 | 0.00 | 0.00 | 35 | |
| 20260503221412 | 61 | 134 | 6.0 | 8.0 | 0.00 | 0.00 | 0.00 | 32 | |
| 20260503220908 | 61 | 106 | 0.0 | 7.0 | 0.00 | 0.00 | 0.00 | 37 | |
| 20260503220404 | 61 | 143 | 3.0 | 6.0 | 0.00 | 0.00 | 0.00 | 34 | |
| 20260503215902 | 61 | 157 | 6.0 | 12.0 | 0.00 | 0.00 | 0.00 | 33 | |
| 20260503215358 | 61 | 139 | 4.0 | 6.0 | 0.00 | 0.00 | 0.00 | 35 | |
| 20260503214856 | 61 | 151 | 3.0 | 8.0 | 0.00 | 0.00 | 0.00 | 35 | |
| 20260503214353 | 61 | 145 | 5.0 | 8.0 | 0.00 | 0.00 | 0.00 | 32 | |
| 20260503213850 | 60 | 111 | 4.0 | 13.0 | 0.00 | 0.00 | 0.00 | 35 | |
| 20260503213348 | 61 | 154 | 9.0 | 12.0 | 0.00 | 0.00 | 0.00 | 32 | |
| 20260503212845 | 61 | 158 | 7.0 | 9.0 | 0.00 | 0.00 | 0.00 | 35 | |
| 20260503212343 | 61 | 196 | 0.0 | 7.0 | 0.00 | 0.00 | 0.00 | 34 | |
| 20260503211839 | 61 | 129 | 6.0 | 13.0 | 0.00 | 0.00 | 0.00 | 34 | |
| 20260503211336 | 61 | 210 | 2.0 | 14.0 | 0.00 | 0.00 | 0.00 | 32 | |
| 20260503210831 | 62 | 123 | 3.0 | 13.0 | 0.00 | 0.00 | 0.00 | 35 | |
| 20260503210329 | 62 | 122 | 4.0 | 8.0 | 0.00 | 0.00 | 0.00 | 35 | |
| 20260503205824 | 62 | 129 | 3.0 | 5.0 | 0.00 | 0.00 | 0.00 | 37 | |
| 20260503205321 | 61 | 124 | 4.0 | 10.0 | 0.00 | 0.00 | 0.00 | 35 | |
| 20260503204817 | 62 | 159 | 5.0 | 5.0 | 0.00 | 0.00 | 0.00 | 34 | |
| 20260503204315 | 61 | 140 | 2.0 | 6.0 | 0.00 | 0.00 | 0.00 | 33 | |
| 20260503203812 | 61 | 198 | 3.0 | 7.0 | 0.00 | 0.00 | 0.00 | 33 | |
| 20260503203309 | 61 | 134 | 8.0 | 18.0 | 0.00 | 0.00 | 0.00 | 34 | |
| 20260503202806 | 62 | 124 | 4.0 | 6.0 | 0.00 | 0.00 | 0.00 | 36 | |
| 20260503202304 | 61 | 137 | 4.0 | 6.0 | 0.00 | 0.00 | 0.00 | 38 | |
| 20260503201802 | 61 | 144 | 9.0 | 10.0 | 0.00 | 0.00 | 0.00 | 36 | |
| 20260503201259 | 60 | 160 | 0.0 | 11.0 | 0.00 | 0.00 | 0.00 | 34 | |
| 20260503200756 | 61 | 144 | 4.0 | 4.0 | 0.00 | 0.00 | 0.00 | 33 | |
| 20260503200251 | 60 | 176 | 3.0 | 9.0 | 0.00 | 0.00 | 0.00 | 37 | |
| 20260503195743 | 60 | 131 | 7.0 | 11.0 | 0.00 | 0.00 | 0.00 | 34 | |
| 20260503195240 | 60 | 120 | 12.0 | 16.0 | 0.00 | 0.00 | 0.00 | 34 | |
| 20260503194738 | 59 | 123 | 8.0 | 13.0 | 0.00 | 0.00 | 0.00 | 37 | |
| 20260503194233 | 60 | 163 | 3.0 | 9.0 | 0.00 | 0.00 | 0.00 | 35 | |
| 20260503193729 | 60 | 114 | 2.0 | 11.0 | 0.00 | 0.00 | 0.00 | 34 | |
| 20260503193226 | 59 | 138 | 5.0 | 12.0 | 0.00 | 0.00 | 0.00 | 37 | |
| 20260503192721 | 60 | 127 | 11.0 | 12.0 | 0.00 | 0.00 | 0.00 | 35 | |
| 20260503192217 | 60 | 133 | 11.0 | 15.0 | 0.00 | 0.00 | 0.00 | 36 | |
| 20260503191714 | 61 | 226 | 0.0 | 5.0 | 0.00 | 0.00 | 0.00 | 35 | |
| 20260503191211 | 59 | 160 | 4.0 | 9.0 | 0.00 | 0.00 | 0.00 | 38 | |
| 20260503190708 | 59 | 140 | 5.0 | 15.0 | 0.00 | 0.00 | 0.00 | 38 | |
| 20260503190204 | 59 | 199 | 7.0 | 12.0 | 0.00 | 0.00 | 0.00 | 37 | |
| 20260503185702 | 59 | 139 | 11.0 | 13.0 | 0.00 | 0.00 | 0.00 | 38 | |
| 20260503185156 | 59 | 105 | 3.0 | 9.0 | 0.00 | 0.00 | 0.00 | 37 | |
| 20260503184651 | 58 | 136 | 6.0 | 16.0 | 0.00 | 0.00 | 0.00 | 39 | |
| 20260503184148 | 59 | 140 | 4.0 | 5.0 | 0.00 | 0.00 | 0.00 | 39 | |
| 20260503183644 | 58 | 127 | 8.0 | 13.0 | 0.00 | 0.00 | 0.00 | 36 | |
| 20260503183142 | 57 | 127 | 7.0 | 12.0 | 0.00 | 0.00 | 0.00 | 37 | |
| 20260503182640 | 59 | 152 | 15.0 | 16.0 | 0.00 | 0.00 | 0.00 | 37 | |
| 20260503182139 | 59 | 139 | 6.0 | 7.0 | 0.00 | 0.00 | 0.00 | 36 | |
| 20260503181635 | 58 | 126 | 6.0 | 7.0 | 0.00 | 0.00 | 0.00 | 40 | |
| 20260503181132 | 58 | 135 | 9.0 | 11.0 | 0.00 | 0.00 | 0.00 | 35 | |
| 20260503180629 | 58 | 141 | 3.0 | 4.0 | 0.00 | 0.00 | 0.00 | 37 | |
| 20260503180127 | 58 | 168 | 8.0 | 15.0 | 0.00 | 0.00 | 0.00 | 38 | |
| 20260503175623 | 57 | 211 | 3.0 | 15.0 | 0.00 | 0.00 | 0.00 | 39 | |
| 20260503175120 | 57 | 137 | 8.0 | 13.0 | 0.00 | 0.00 | 0.00 | 39 | |
| 20260503174617 | 57 | 164 | 3.0 | 13.0 | 0.00 | 0.00 | 0.00 | 37 | |
| 20260503174114 | 55 | 139 | 9.0 | 19.0 | 0.00 | 0.00 | 0.00 | 39 | |
| 20260503173609 | 57 | 84 | 4.0 | 7.0 | 0.00 | 0.00 | 0.00 | 38 | |
| 20260503173106 | 56 | 139 | 11.0 | 15.0 | 0.00 | 0.00 | 0.00 | 37 | |
| 20260503172603 | 55 | 151 | 8.0 | 15.0 | 0.00 | 0.00 | 0.00 | 41 | |
| 20260503172100 | 55 | 151 | 15.0 | 19.0 | 0.00 | 0.00 | 0.00 | 37 | |
| 20260503171556 | 55 | 103 | 3.0 | 11.0 | 0.00 | 0.00 | 0.00 | 39 | |
| 20260503171054 | 56 | 140 | 4.0 | 11.0 | 0.00 | 0.00 | 0.00 | 39 | |
| 20260503170550 | 56 | 167 | 2.0 | 8.0 | 0.00 | 0.00 | 0.00 | 39 | |
| 20260503150937 | 52 | 150 | 11.0 | 11.0 | 0.00 | 0.00 | 0.00 | 46 | |
| 20260503150433 | 52 | 157 | 8.0 | 11.0 | 0.00 | 0.00 | 0.00 | 42 | |
| 20260503131314 | 48 | 139 | 7.0 | 10.0 | 0.00 | 0.00 | 0.00 | 54 | |
| 20260503130811 | 48 | 194 | 6.0 | 18.0 | 0.00 | 0.00 | 0.00 | 52 | |
| 20260503130308 | 48 | 131 | 11.0 | 14.0 | 0.00 | 0.00 | 0.00 | 56 | |
| 20260503110703 | 44 | 149 | 6.0 | 12.0 | 0.00 | 0.00 | 0.00 | 68 | |
| 20260503110200 | 44 | 183 | 4.0 | 13.0 | 0.00 | 0.00 | 0.00 | 69 | |
| 20260503100126 | 43 | 130 | 5.0 | 15.0 | 0.00 | 0.00 | 0.00 | 71 |